Location: Newark
(49.8969°N, 3.3422°E)
Time: 13:38:33
(UTC+00:00)

deb Explorer IX - Pass Details

Date: 21 January 2020
Orbit: 549 x 1099 km, 38.8° (Epoch: 24 February)

Event Time Altitude Azimuth Distance (km) Brightness Sun altitude
Rises 04:21:18 0° 265° (W) 3,787 - -30.6°
Reaches altitude 10° 04:25:20 10° 244° (WSW) 2,739 - -30.0°
Maximum altitude 04:28:52 15° 212° (SSW) 2,289 - -29.4°
Exits shadow 04:31:49 11° 182° (S) 2,475 ? -28.9°
Drops below altitude 10° 04:32:10 10° 179° (S) 2,532 ? -28.9°
Sets 04:35:41 0° 156° (SSE) 3,342 ? -28.3°
